Location: Boiro
(42.6475°N, 8.8834°W)
Time: 18:09:11
(UTC+01:00)

Transit 2A Rocket - Pass Details

Date: 08 December 2021
Orbit: 584 x 918 km, 66.7° (Epoch: 19 January)

Event Time Altitude Azimuth Distance (km) Brightness Sun altitude
Rises 16:34:49 0° 330° (NNW) 3,558 8.3 11.6°
Reaches altitude 10° 16:37:26 10° 334° (NNW) 2,598 7.6 11.3°
Maximum altitude 16:43:29 65° 56° (NE) 959 5.5 10.5°
Drops below altitude 10° 16:49:07 10° 138° (SE) 2,430 7.7 9.8°
Sets 16:51:29 0° 142° (SE) 3,311 8.4 9.5°
